"TOA5","AWS1","CR1000","7964","CR1000.Std.14","CPU:AWS1_114.CR1","64363","TBL110"
"TIMESTAMP","RECORD","Wind_spd_WVc(1)","Wind_spd_WVc(2)","Air_Temp_Avg","Humidity_Avg","SW_upper_Wm2_Avg","Rain_Tot","Press_Avg","Issui_Tot","Depth_cm","SR50A_Raw","Quality","Ground_Temp_Avg(1)","Ground_Temp_Avg(2)","SW_lower_Wm2_Avg","Albedo_Avg","SWC_per(1)","SWC_per(2)","Period(1)","Period(2)"
"TS","RN","","","","","","","","","","","","","","","","","","",""
"","","WVc","WVc","Avg","Avg","Avg","Tot","Avg","Tot","Smp","Smp","Smp","Avg","Avg","Avg","Avg","Smp","Smp","Smp","Smp"
"2017-07-13 00:00:00",296557,0,0,18.68,99.5,0,0,865.7968,0,2.222,3.056,245,21.43,20.14,1.060985,0,43.53,51.94,31.64,33.77
"2017-07-13 00:10:00",296558,0.027,34.68,18.34,100,0,1,865.6979,0,4.531,3.035,233,21.45,20.14,0.7806009,0,43.53,51.94,31.64,33.77
"2017-07-13 00:20:00",296559,0,0,18.17,100,0,0,865.5757,0,3.672,3.044,215,21.47,20.15,0.6820776,0,43.53,51.94,31.64,33.77
"2017-07-13 00:30:00",296560,0.142,307.6,18.13,100,0,0,865.5462,0,4.418,3.037,451,21.39,20.17,0.8450242,0,43.47,51.88,31.63,33.76
"2017-07-13 00:40:00",296561,0.257,272,18.1,100,0,0.5,865.6431,0,3.546,3.045,253,21.35,20.17,0.8033399,0,43.47,51.88,31.63,33.76
"2017-07-13 00:50:00",296562,0.007,44.53,18.1,100,0.03537052,1,865.761,0,3.751,3.043,241,21.34,20.17,0.5380865,0.434,43.47,51.94,31.63,33.77
"2017-07-13 01:00:00",296563,0,0,18.08,100,0,3,865.7989,0,5.14,3.03,387,21.35,20.17,0.4547209,0,43.84,51.88,31.72,33.76
"2017-07-13 01:10:00",296564,0,0,18.07,100,0,2,865.7989,0,3.944,3.042,270,21.28,20.18,0.4092548,0,44.35,51.94,31.86,33.77
"2017-07-13 01:20:00",296565,0,0,18,100,0,2,865.7989,0,3.693,3.044,235,21.25,20.18,0.276628,0,45.14,52.1,32.06,33.81
"2017-07-13 01:30:00",296566,0,0,17.98,100,0,2,865.7989,0,3.992,3.042,240,21.19,20.18,0.3562061,0,47.89,52.32,32.77,33.87
"2017-07-13 01:40:00",296567,0,0,17.87,100,0,3.5,865.7842,0,4.638,3.036,464,21.09,20.18,0.416832,0,48.7,52.49,32.97,33.91
"2017-07-13 01:50:00",296568,0.136,86.1,17.82,100,0,1.5,865.6578,0,3.936,3.043,262,20.95,20.18,0.303149,0,49.62,52.72,33.2,33.96
"2017-07-13 02:00:00",296569,0.074,142.2,17.85,100,0,1.5,865.7357,0,4.715,3.035,271,20.85,20.19,0.4357845,0,50.66,52.94,33.46,34.02
"2017-07-13 02:10:00",296570,0,0,17.88,100,0,1.5,865.7989,0,3.972,3.042,268,20.89,20.19,0.3410429,0,51.94,53.11,33.77,34.06
"2017-07-13 02:20:00",296571,0.055,143.5,17.82,100,0,1,865.8017,0,4.042,3.042,268,20.81,20.18,0.2463081,0,52.16,53.28,33.83,34.1
"2017-07-13 02:30:00",296572,0,0,17.79,100,0,1.5,865.8052,0,3.419,3.048,245,20.76,20.18,0.3031512,0,52.6,53.56,33.94,34.17
"2017-07-13 02:40:00",296573,0,0,17.8,100,0,3,865.8029,0,4.244,3.04,318,20.73,20.19,0.287999,0,52.94,54.12,34.02,34.3
"2017-07-13 02:50:00",296574,0.305,106.1,17.78,100,0,2,865.684,0,1.071,3.071,221,20.59,20.23,0.2728398,0,53.05,55.89,34.04,34.72
"2017-07-13 03:00:00",296575,0.313,130.1,17.73,100,0,0.5,865.5492,0,0.167,3.08,203,20.54,20.27,0.2879899,0,53.05,56.64,34.04,34.9
"2017-07-13 03:10:00",296576,0.278,114.5,17.74,100,0,0.5,865.5496,0,-0.559,3.087,210,20.49,20.3,0.2842046,0,52.6,58.03,33.94,35.22
"2017-07-13 03:20:00",296577,0.337,115.8,17.73,100,0,1,865.5281,0,-0.557,3.087,211,20.47,20.31,0.4547305,0,52.6,58.44,33.94,35.32
"2017-07-13 03:30:00",296578,0.016,115.5,17.75,100,0,0,865.4664,0,-0.812,3.089,212,20.41,20.31,0.4547268,0,52.44,58.79,33.89,35.4
"2017-07-13 03:40:00",296579,0,0,17.81,100,0,0.5,865.4641,0,0.84,3.073,500,20.44,20.31,0.4509435,0,52.38,59.03,33.88,35.45
"2017-07-13 03:50:00",296580,0.156,331.9,17.82,100,0,0.5,865.5462,0,-0.731,3.088,202,20.4,20.31,0.4736755,0,52.32,59.08,33.87,35.47
"2017-07-13 04:00:00",296581,0,0,17.86,100,0,0.5,865.5462,0,-0.189,3.083,208,20.38,20.3,0.4244074,0,52.32,59.2,33.87,35.5
"2017-07-13 04:10:00",296582,0,0,17.86,100,0,0,865.5462,0,0.592,3.075,269,20.3,20.29,0.3220896,0,52.32,59.32,33.87,35.52
"2017-07-13 04:20:00",296583,0.115,294.2,17.8,100,0,0,865.5462,0,1.257,3.069,275,20.31,20.24,0.2766163,0,52.27,59.32,33.85,35.52
"2017-07-13 04:30:00",296584,0.046,308.8,17.81,100,0,0,865.6326,0,0.352,3.078,223,20.33,20.22,0.4281928,0,52.32,59.38,33.87,35.54
"2017-07-13 04:40:00",296585,0.194,9.59,17.79,100,0,0,865.7821,0,-0.19,3.083,231,20.3,20.24,0.4357723,0,52.27,59.32,33.85,35.52
"2017-07-13 04:50:00",296586,0,0,17.88,100,0.2436634,0.5,865.7989,0,-0.315,3.084,222,20.31,20.22,0.450931,0.82,52.21,59.32,33.84,35.52
"2017-07-13 05:00:00",296587,0,0,17.86,100,1.740985,0,865.7989,0,-0.6,3.087,210,20.26,20.17,0.5191281,0.305,52.21,59.26,33.84,35.51
"2017-07-13 05:10:00",296588,0,0,17.87,100,3.226526,0,865.8474,0,-0.337,3.084,238,20.22,20.18,0.7275388,0.231,52.16,59.2,33.83,35.5
"2017-07-13 05:20:00",296589,0,0,17.88,100,3.702076,0,866.0137,0,-0.751,3.088,223,20.25,20.21,0.8109071,0.222,52.1,59.14,33.81,35.48
"2017-07-13 05:30:00",296590,0,0,17.9,100,2.853138,0,866.0516,0,-0.484,3.085,246,20.27,20.19,0.6896366,0.242,51.71,59.08,33.72,35.47
"2017-07-13 05:40:00",296591,0.207,107,18,100,7.859982,0,866.0663,0,-0.431,3.084,268,20.29,20.13,1.364132,0.199,50.83,59.03,33.5,35.45
"2017-07-13 05:50:00",296592,0.197,111.8,17.95,100,14.78852,0,866.121,0,-0.386,3.084,274,20.29,20.13,2.125769,0.145,50.72,58.97,33.47,35.44
"2017-07-13 06:00:00",296593,0.097,61.34,17.98,100,18.34532,0,866.1652,0,-0.385,3.084,276,20.29,20.12,2.387249,0.131,50.66,58.91,33.46,35.43
"2017-07-13 06:10:00",296594,0.167,125.6,18.03,100,25.28547,0,866.0557,0,-0.199,3.082,268,20.27,20.07,3.254963,0.129,50.66,58.85,33.46,35.41
"2017-07-13 06:20:00",296595,0.057,118.8,18.01,100,32.55501,0,866.0516,0,-0.068,3.081,257,20.24,20.03,4.209732,0.129,50.61,58.85,33.45,35.41
"2017-07-13 06:30:00",296596,0,0,18.06,100,44.367,0,866.056,0,0.253,3.077,256,20.2,20.07,5.9109,0.134,50.61,58.79,33.45,35.4
"2017-07-13 06:40:00",296597,0.125,19.73,18.1,100,80.16729,0,866.0536,0,0.711,3.073,257,20.19,20.1,9.900772,0.12,50.55,58.73,33.43,35.39
"2017-07-13 06:50:00",296598,0.109,51.01,18.35,100,140.6646,0,866.052,0,1.505,3.063,239,20.18,20.11,24.68986,0.187,50.55,58.67,33.43,35.37
"2017-07-13 07:00:00",296599,0.256,77.32,18.83,100,132.9578,0,866.1631,0,2.362,3.052,248,20.16,20.11,32.94624,0.266,50.5,58.61,33.42,35.36
"2017-07-13 07:10:00",296600,0.037,72.53,19.18,100,158.3228,0,866.3041,0,0.37,3.069,225,20.19,20.08,33.19584,0.209,50.5,58.61,33.42,35.36
"2017-07-13 07:20:00",296601,0.145,144.6,19.44,99.9,177.7376,0,866.3041,0,0.024,3.071,249,20.2,20.03,43.03551,0.243,50.44,58.56,33.41,35.35
"2017-07-13 07:30:00",296602,0.069,197.6,19.86,99.7,189.2566,0,866.3063,0,-1.933,3.089,222,20.19,20.01,44.30792,0.235,50.39,58.56,33.39,35.35
"2017-07-13 07:40:00",296603,0.181,189.6,19.83,96.6,226.1894,0,866.4727,0,-2.401,3.094,205,20.18,20.02,34.01304,0.15,50.39,58.5,33.39,35.33
"2017-07-13 07:50:00",296604,0.12,178.9,19.62,98.2,318.3626,0,866.5568,0,2.009,3.051,250,20.17,20,37.96016,0.126,50.22,58.5,33.35,35.33
"2017-07-13 08:00:00",296605,0.193,165.6,19.95,94.8,387.9695,0,866.3821,0,1.89,3.054,327,20.17,19.94,41.67978,0.109,50.06,58.5,33.31,35.33
"2017-07-13 08:10:00",296606,0.077,133.8,19.55,92.4,282.7654,0,866.3041,0,1.327,3.059,283,20.17,19.91,36.02209,0.127,50.06,58.44,33.31,35.32
"2017-07-13 08:20:00",296607,0.292,136.2,19.68,91.9,449.1722,0,866.3021,0,4.064,3.031,243,20.18,19.9,64.15578,0.14,50.01,58.44,33.3,35.32
"2017-07-13 08:30:00",296608,0.298,113.2,20.65,86.8,765.9786,0,866.1842,0,3.965,3.023,220,20.16,19.87,115.4954,0.15,50.01,58.44,33.3,35.32
"2017-07-13 08:40:00",296609,0.452,128,21.24,81.2,668.4968,0,866.0768,0,3.893,3.028,217,20.09,19.81,98.99693,0.146,50.01,58.38,33.3,35.31
"2017-07-13 08:50:00",296610,0.763,140.6,20.83,80.8,738.0801,0,866.0516,0,4.346,3.023,221,20.07,19.84,114.8742,0.154,50.01,58.38,33.3,35.31
"2017-07-13 09:00:00",296611,0.457,144.8,21.23,80.6,660.8108,0,866.0516,0,3.446,3.029,229,20.08,19.85,102.9125,0.156,50.01,58.32,33.3,35.29
"2017-07-13 09:10:00",296612,0.686,139.9,21.16,81.3,639.7245,0,866.0368,0,3.68,3.029,217,20.05,19.84,97.46061,0.152,49.9,58.32,33.27,35.29
"2017-07-13 09:20:00",296613,0.473,122.4,21.17,79.46,714.8643,0,865.9379,0,3.643,3.026,222,20.08,19.79,110.3632,0.154,49.9,58.26,33.27,35.28
"2017-07-13 09:30:00",296614,0.428,133.6,21.57,78.65,546.4733,0,866.0368,0,4.14,3.023,220,20.17,19.73,83.42489,0.153,49.9,58.26,33.27,35.28
"2017-07-13 09:40:00",296615,0.4,114.3,21.48,78.24,560.7589,0,866.0516,0,4.07,3.023,209,20.17,19.71,86.43275,0.154,49.9,58.26,33.27,35.28
"2017-07-13 09:50:00",296616,0.392,143.3,21.16,79.4,347.6803,0,865.9716,0,4.326,3.023,217,20.16,19.72,53.42951,0.153,49.84,58.21,33.26,35.26
"2017-07-13 10:00:00",296617,0.34,119.6,21.72,79.3,1009.539,0,866.0452,0,2.67,3.03,279,20.17,19.72,162.016,0.16,49.84,58.21,33.26,35.26
"2017-07-13 10:10:00",296618,0.142,175.8,22.72,79.14,393.15,0,866.0494,0,3.734,3.024,220,20.23,19.68,53.57346,0.118,49.84,58.15,33.26,35.25
"2017-07-13 10:20:00",296619,0.171,29.52,21.05,85.8,181.7374,0,866.0305,0,4.649,3.021,230,20.25,19.75,23.17274,0.12,49.79,58.15,33.24,35.25
"2017-07-13 10:30:00",296620,0.092,91.7,21.09,82.7,378.5265,0,866.0347,0,3.99,3.024,214,20.23,19.78,55.40697,0.146,49.84,58.15,33.26,35.25
"2017-07-13 10:40:00",296621,0.445,126.8,21.82,79.6,909.5315,0,865.9673,0,4.115,3.019,240,20.31,19.77,143.177,0.155,49.79,58.21,33.24,35.26
"2017-07-13 10:50:00",296622,0.82,119.9,22.18,72.38,987.6901,0,865.7989,0,1.493,3.044,287,20.36,19.75,156.7692,0.158,49.79,58.09,33.24,35.24
"2017-07-13 11:00:00",296623,0.615,116.1,22.56,68.03,1050.337,0,865.7484,0,4.381,3.012,393,20.39,19.75,169.7667,0.161,49.73,58.15,33.23,35.25
"2017-07-13 11:10:00",296624,0.387,120.7,23.39,65.65,779.1023,0,865.5462,0,3.248,3.022,221,20.36,19.73,118.47,0.148,49.79,58.09,33.24,35.24
"2017-07-13 11:20:00",296625,0.291,336.4,22.85,71.49,853.7208,0,865.3272,0,4.416,3.013,223,20.46,19.66,129.24,0.149,49.73,58.09,33.23,35.24
"2017-07-13 11:30:00",296626,0.245,10.43,22.78,69.51,673.6336,0,865.2936,0,3.676,3.021,290,20.51,19.63,95.08512,0.129,49.73,58.09,33.23,35.24
"2017-07-13 11:40:00",296627,0.23,344.1,22.26,71.14,538.1321,0,865.2936,0,3.803,3.022,228,20.58,19.64,75.81808,0.124,49.73,58.09,33.23,35.24
"2017-07-13 11:50:00",296628,0.307,313.4,22.18,69.96,623.0445,0,865.2936,0,3.515,3.023,253,20.64,19.62,90.94836,0.134,49.68,58.09,33.22,35.24
"2017-07-13 12:00:00",296629,0.227,86.1,22.93,68.48,722.7454,0,865.2936,0,2.299,3.03,310,20.7,19.62,108.8516,0.138,49.68,58.03,33.22,35.22
"2017-07-13 12:10:00",296630,0.381,155.6,23.81,64.07,1045.351,0,865.2914,0,2.693,3.022,336,20.74,19.62,165.2057,0.155,49.62,58.03,33.2,35.22
"2017-07-13 12:20:00",296631,0.293,142.5,24.66,61.41,1112.411,0,865.1104,0,3.578,3.01,274,20.82,19.6,175.2483,0.157,49.62,58.03,33.2,35.22
"2017-07-13 12:30:00",296632,0.423,111.2,24.92,60.3,1046.011,0,865.041,0,4.146,3.005,276,20.89,19.61,159.6142,0.15,49.62,57.97,33.2,35.21
"2017-07-13 12:40:00",296633,0.857,112.5,24.26,60.28,971.0588,0,865.0241,0,3.702,3.013,380,20.96,19.62,147.6206,0.148,49.62,57.97,33.2,35.21
"2017-07-13 12:50:00",296634,0.325,130.6,24.13,61.93,581.4841,0,864.9862,0,3.712,3.014,221,21.01,19.59,83.05363,0.129,49.57,57.97,33.19,35.21
"2017-07-13 13:00:00",296635,0.309,336,23.54,63.91,569.0372,0,864.9925,0,3.933,3.011,229,21.08,19.6,84.42878,0.132,49.57,57.97,33.19,35.21
"2017-07-13 13:10:00",296636,0.298,240,24.42,64.7,764.2155,0,864.9125,0,3.887,3.011,224,21.21,19.59,118.7124,0.142,49.51,57.97,33.18,35.21
"2017-07-13 13:20:00",296637,0.351,315.2,23.12,72.23,450.933,0,865.041,0,4.208,3.015,217,21.28,19.59,65.99514,0.137,49.51,57.91,33.18,35.2
"2017-07-13 13:30:00",296638,0.429,2.693,22.73,73.91,544.3398,0,865.0536,0,5.156,3.005,291,21.39,19.59,82.23537,0.147,49.51,57.91,33.18,35.2
"2017-07-13 13:40:00",296639,0.646,48.28,22.98,72.44,670.1722,0,865.0956,0,3.41,3.024,219,21.42,19.59,100.1652,0.146,49.46,57.91,33.16,35.2
"2017-07-13 13:50:00",296640,0.57,14.26,21.96,73.17,389.7397,0,865.2388,0,4.254,3.019,215,21.52,19.6,55.60775,0.143,49.46,57.91,33.16,35.2
"2017-07-13 14:00:00",296641,0.314,53.18,21.98,75.64,424.507,0,865.2936,0,3.977,3.021,209,21.57,19.62,61.75988,0.145,49.46,57.91,33.16,35.2
"2017-07-13 14:10:00",296642,0.212,216.5,21.98,77.14,328.6603,0,865.283,0,3.988,3.022,219,21.67,19.61,46.4667,0.141,49.41,57.91,33.15,35.2
"2017-07-13 14:20:00",296643,0.456,137.8,21.56,78.86,256.4266,0,865.2893,0,3.725,3.027,229,21.73,19.63,36.15508,0.141,49.46,57.91,33.16,35.2
"2017-07-13 14:30:00",296644,0.505,143.9,21.16,80.3,185.9413,0,865.2936,0,3.264,3.033,227,21.79,19.63,26.49125,0.142,49.41,57.86,33.15,35.18
"2017-07-13 14:40:00",296645,0.288,136.8,21.05,80.5,190.2278,0,865.4936,0,3.69,3.028,229,21.77,19.65,28.70737,0.151,49.41,57.86,33.15,35.18
"2017-07-13 14:50:00",296646,0.176,130.4,21.49,80.6,257.0757,0,865.5294,0,3.549,3.026,219,21.9,19.69,39.29187,0.153,49.41,57.86,33.15,35.18
"2017-07-13 15:00:00",296647,0.218,218.3,21.78,79.46,344.1134,0,865.5126,0,3.882,3.023,216,21.96,19.74,50.93371,0.148,49.41,57.86,33.15,35.18
"2017-07-13 15:10:00",296648,0.209,11.75,21.76,75.92,317.2389,0,865.4683,0,4.008,3.022,204,21.98,19.72,45.70641,0.144,49.41,57.86,33.15,35.18
"2017-07-13 15:20:00",296649,0.093,358.9,21.78,75.11,345.6342,0,865.4578,0,4.017,3.021,221,21.98,19.72,51.03719,0.148,49.35,57.86,33.14,35.18
"2017-07-13 15:30:00",296650,0.122,300.3,21.52,77.88,229.3695,0,865.5441,0,3.534,3.029,224,22.06,19.72,32.14085,0.139,49.35,57.86,33.14,35.18
"2017-07-13 15:40:00",296651,0.154,309.9,21.16,75.14,188.5591,0,865.5652,0,3.665,3.028,221,22.1,19.71,25.90476,0.137,49.35,57.86,33.14,35.18
"2017-07-13 15:50:00",296652,0.053,259.6,21.13,75,162.0524,0,865.74,0,3.446,3.031,219,22.08,19.71,21.61617,0.133,49.35,57.8,33.14,35.17
"2017-07-13 16:00:00",296653,0.166,296.5,20.84,74.41,147.8304,0,865.7842,0,3.539,3.031,227,22.06,19.74,20.08582,0.136,49.3,57.8,33.12,35.17
"2017-07-13 16:10:00",296654,0.046,118,20.9,74.64,107.4513,0,865.7989,0,3.4,3.033,234,22.06,19.79,13.68727,0.127,49.35,57.8,33.14,35.17
"2017-07-13 16:20:00",296655,0.139,126.7,20.64,76.19,102.7832,0,865.7989,0,3.377,3.033,245,22.12,19.8,13.47507,0.131,49.3,57.8,33.12,35.17
"2017-07-13 16:30:00",296656,0.071,185.8,20.7,76.22,70.2091,0,865.7989,0,3.442,3.033,247,22.23,19.85,8.345843,0.118,49.3,57.8,33.12,35.17
"2017-07-13 16:40:00",296657,0.035,158.7,20.54,77.74,52.5417,0,865.7989,0,3.346,3.035,242,22.25,19.89,5.982089,0.113,49.35,57.8,33.14,35.17
"2017-07-13 16:50:00",296658,0.088,77.84,20.51,78.29,48.6833,0,865.7989,0,3.165,3.037,235,22.25,19.89,5.804038,0.119,49.3,57.86,33.12,35.18
"2017-07-13 17:00:00",296659,0.022,57.44,20.51,79.35,41.8428,0,865.8137,0,3.299,3.035,235,22.25,19.86,5.14866,0.123,49.3,57.8,33.12,35.17
"2017-07-13 17:10:00",296660,0,0,20.41,78.37,35.25441,0,865.8115,0,3.124,3.038,240,22.26,19.85,4.667645,0.13,49.3,57.86,33.12,35.18
"2017-07-13 17:20:00",296661,0.018,172.6,20.58,78.1,107.4177,0,865.7926,0,3.052,3.036,235,22.26,19.94,17.07179,0.159,49.3,57.86,33.12,35.18
"2017-07-13 17:30:00",296662,0.26,172.9,21.03,73.48,190.4931,0,865.7926,0,3.461,3.03,227,22.25,20,31.40505,0.165,49.3,57.8,33.12,35.17
"2017-07-13 17:40:00",296663,0.39,22.65,21.52,71.2,199.0521,0,865.7147,0,3.359,3.029,221,22.22,19.96,32.91686,0.165,49.3,57.8,33.12,35.17
"2017-07-13 17:50:00",296664,0.209,26.59,21.68,67.79,137.6513,0,865.7715,0,2.945,3.033,241,22.22,19.92,20.78861,0.151,49.3,57.74,33.12,35.16
"2017-07-13 18:00:00",296665,0.074,265.9,21.32,71.95,111.2451,0,865.8304,0,3.133,3.033,233,22.24,19.94,16.66643,0.149,49.24,57.8,33.11,35.17
"2017-07-13 18:10:00",296666,0.01,279.6,21.11,73.97,61.56472,0,865.9842,0,3.457,3.031,229,22.24,19.98,7.641649,0.116,49.24,57.74,33.11,35.16
"2017-07-13 18:20:00",296667,0.101,52.54,20.88,75.77,17.91392,0,866.0516,0,3.679,3.03,223,22.13,20.01,0.4508484,0.024,49.24,57.74,33.11,35.16
"2017-07-13 18:30:00",296668,0,0,20.72,77.52,16.77001,0,866.0516,0,3.776,3.03,224,22.09,20.04,0.7008774,0.039,49.3,57.8,33.12,35.17
"2017-07-13 18:40:00",296669,0.007,70.14,20.45,77.57,9.748322,0,866.0516,0,3.419,3.035,234,22.14,20.06,0.3902152,0.029,49.3,57.8,33.12,35.17
"2017-07-13 18:50:00",296670,0,0,20.34,78.42,5.273088,0,866.239,0,2.507,3.044,238,22.16,20.08,0.03409711,0.005,49.24,57.8,33.11,35.17
"2017-07-13 19:00:00",296671,0.037,89.9,20.21,79.17,2.318291,0,866.3041,0,3.22,3.038,382,22.17,20.08,0,0,49.24,57.8,33.11,35.17
"2017-07-13 19:10:00",296672,0.041,90.9,19.96,82.8,0.5501134,0,866.3694,0,2.99,3.042,312,22.17,20.08,0,0,49.24,57.8,33.11,35.17
"2017-07-13 19:20:00",296673,0.272,70.54,19.57,84.9,0,0,866.4473,0,3.565,3.038,283,22.16,20.1,0,0,49.3,57.8,33.12,35.17
"2017-07-13 19:30:00",296674,0.279,59.17,19.43,87.5,0,0,866.7295,0,3.483,3.039,237,22.11,20.15,0,0,49.3,57.74,33.12,35.16
"2017-07-13 19:40:00",296675,0.085,317.4,19.4,90.1,0,0,866.8096,0,3.946,3.035,241,22.09,20.18,0,0,49.3,57.74,33.12,35.16
"2017-07-13 19:50:00",296676,0.03,115.8,19.29,93.4,0,0,866.8054,0,3.988,3.035,241,22.1,20.2,0,0,49.24,57.74,33.11,35.16
"2017-07-13 20:00:00",296677,0.141,145.6,19.12,97.6,0,0,866.8096,0,3.92,3.037,265,22.1,20.23,0,0,49.3,57.74,33.12,35.16
"2017-07-13 20:10:00",296678,0.387,134.4,18.97,100,0,0,866.8096,0,4.069,3.036,286,22.1,20.23,0,0,49.3,57.74,33.12,35.16
"2017-07-13 20:20:00",296679,0.215,133.6,18.82,100,0,0,866.9401,0,4.345,3.034,271,22.05,20.21,0,0,49.24,57.74,33.11,35.16
"2017-07-13 20:30:00",296680,0.175,159.7,18.77,100,0,0,867.1254,0,4.113,3.036,237,22.01,20.2,0.09851379,0,49.24,57.74,33.11,35.16
"2017-07-13 20:40:00",296681,0.259,152.3,18.78,100,0,0,867.2623,0,4.576,3.032,244,22.02,20.19,0.2273389,0,49.3,57.74,33.12,35.16
"2017-07-13 20:50:00",296682,0.279,134.1,18.7,100,0,0,867.2664,0,4.503,3.034,237,21.97,20.21,0.159139,0,49.24,57.74,33.11,35.16
"2017-07-13 21:00:00",296683,0.359,152.8,18.55,100,0,0,867.3148,0,4.661,3.032,236,22,20.25,0.1629343,0,49.24,57.74,33.11,35.16
"2017-07-13 21:10:00",296684,0.395,144.9,18.68,100,0,0,867.3148,0,4.36,3.034,232,21.95,20.28,0.4205972,0,49.3,57.74,33.12,35.16
"2017-07-13 21:20:00",296685,0.339,141.9,18.74,100,0,0,867.3148,0,4.256,3.035,226,21.95,20.29,0.2841887,0,49.24,57.74,33.11,35.16
"2017-07-13 21:30:00",296686,0.222,166.7,18.74,100,0,0,867.317,0,4.199,3.036,227,21.96,20.29,0.1515685,0,49.3,57.74,33.12,35.16
"2017-07-13 21:40:00",296687,0.374,40.7,18.63,99.2,0,0,867.3527,0,4.096,3.037,226,21.95,20.26,0.2197717,0,49.3,57.68,33.12,35.14
"2017-07-13 21:50:00",296688,0.191,78.78,18.69,97.8,0,0,867.3148,0,3.991,3.038,221,21.87,20.26,0.2728242,0,49.24,57.68,33.11,35.14
"2017-07-13 22:00:00",296689,0.006,229.5,18.72,97.4,0,0,867.3148,0,4.093,3.037,230,21.87,20.25,0.1970403,0,49.3,57.68,33.12,35.14
"2017-07-13 22:10:00",296690,0.088,97.4,18.58,99.2,0,0,867.2517,0,3.922,3.04,238,21.89,20.27,0,0,49.24,57.68,33.11,35.14
"2017-07-13 22:20:00",296691,0.076,150.9,18.39,100,0,0,867.1759,0,3.807,3.042,241,21.84,20.29,0,0,49.3,57.68,33.12,35.14
"2017-07-13 22:30:00",296692,0.421,129.2,18.2,100,0,0,867.2327,0,3.867,3.041,253,21.79,20.3,0.07578604,0,49.3,57.68,33.12,35.14
"2017-07-13 22:40:00",296693,0.41,132.6,18.14,100,0,0,867.3065,0,3.549,3.045,256,21.77,20.31,0.1780957,0,49.24,57.68,33.11,35.14
"2017-07-13 22:50:00",296694,0.196,144.7,18.08,100,0,0,867.3148,0,3.597,3.045,260,21.77,20.3,0.208407,0,49.3,57.68,33.12,35.14
"2017-07-13 23:00:00",296695,0.196,279,18.16,100,0,0,867.277,0,3.446,3.046,270,21.71,20.3,0.4509178,0,49.24,57.68,33.11,35.14
"2017-07-13 23:10:00",296696,0.105,52.43,18.27,97.4,0,0,867.1338,0,3.146,3.048,265,21.69,20.3,0.5267036,0,49.24,57.68,33.11,35.14
"2017-07-13 23:20:00",296697,0.129,81.3,18.2,100,0,0,867.0601,0,2.679,3.053,293,21.66,20.29,0.2614532,0,49.24,57.68,33.11,35.14
"2017-07-13 23:30:00",296698,0.105,181.1,18.2,100,0,0,866.9064,0,2.619,3.054,286,21.69,20.3,0.3107162,0,49.24,57.68,33.11,35.14
"2017-07-13 23:40:00",296699,0.035,290.1,18.15,98.3,0,0,866.9949,0,1.192,3.068,237,21.63,20.33,0.5532357,0,49.3,57.68,33.12,35.14
"2017-07-13 23:50:00",296700,0,0,18.05,100,0,0,866.962,0,-0.306,3.083,220,21.62,20.33,0.45472,0,49.24,57.68,33.11,35.14
